Temperature
17 17 17 17 17 17 17 17 17 17 17 17 18 18 18 18 18 18 18 18 18 18 18 18 18 18 18 17 17 17 17 18 18 18 17 17 18 18 18 18 18 18 17
17 17 17 17 17 17 17 17 17 17 17 17 18 18 18 18 18 17 18 18 18 18 17 17 17 17 17 17 17 18 18 18 18 17 17 17 17 17 17 17 17 17 17
17 17 17 17 17 17 17 17 17 17 17 17 17 17 17 17 17 17 17 17 17 17 17 17 17 17 17 17 17 17 18 17 17 17 17 17 17 17 17 17 17 17 17
17 17 17 17 17 17 17 17 17 17 17 17 17 17 17 17 17 17 17 17 17 17 17 17 17 17 17 17 17 17 17 17 17 17 17 17 17 17 17 17 17 17 17
17 17 17 17 17 17 17 17 17 17 17 17 17 17 17 17 17 17 17 17 17 17 17 17 17 17 17 17 17 17 17 17 17 17 17 17 17 17 17 17 17 17 17
17 17 17 17 17 17 17 17 17 17 17 17 17 17 17 17 17 17 17 17 17 17 17 17 17 17 17 17 17 17 17 17 17 17 17 16 16 16 16 16 16 16 16
17 17 17 17 17 17 17 17 17 17 17 17 17 17 17 17 17 17 17 17 17 17 17 17 17 17 17 17 17 17 17 17 17 17 16 16 16 16 16 16 16 16 16
17 17 17 17 17 17 17 17 16 16 17 16 17 16 17 16 16 17 16 16 16 16 16 16 16 16 16 16 16 17 17 17 17 16 16 16 16 16 16 16 16 16 16
17 17 17 16 16 16 16 16 16 16 16 16 16 16 16 16 16 16 16 16 16 16 16 16 16 16 16 16 16 16 16 16 16 16 16 16 16 16 16 16 16 16 16
17 17 17 16 16 16 16 16 16 16 16 16 16 16 16 16 16 16 16 16 16 16 16 16 16 16 16 16 16 16 16 16 16 16 16 16 16 16 16 16 16 16 15
17 17 16 16 16 16 16 16 16 16 16 16 16 16 16 16 16 16 16 16 16 16 16 16 16 16 16 16 16 16 16 16 16 16 16 16 15 15 16 16 16 15 15
17 17 16 16 16 16 16 16 16 16 16 16 16 16 16 16 16 16 16 16 16 16 16 16 16 16 16 16 16 16 16 16 16 15 15 15 15 15 15 15 15 15 15
17 17 16 16 16 16 16 16 16 16 16 16 16 16 16 16 16 16 16 15 15 16 16 15 16 16 16 15 15 15 15 15 15 15 15 15 15 15 15 15 15 15 15
17 17 16 16 16 16 16 16 16 16 16 16 16 15 15 15 15 15 15 15 15 15 15 15 15 15 15 15 15 15 15 15 15 15 15 15 15 15 15 15 15 15 15
17 17 17 16 16 16 16 16 16 16 16 16 15 15 15 15 15 15 15 15 15 15 15 15 15 15 15 15 15 15 15 15 15 15 15 15 15 15 15 15 15 15 15
17 17 17 16 16 16 16 16 16 16 16 15 15 15 15 15 15 15 15 15 15 15 15 15 15 15 15 15 15 14 14 14 15 15 15 15 14 14 15 14 15 15 15
17 17 17 16 16 16 16 16 16 16 16 15 15 15 15 15 15 15 15 15 15 15 15 15 15 15 15 14 14 14 14 14 14 14 14 14 14 14 14 14 14 14 14
17 17 17 16 16 16 16 16 16 15 15 15 15 15 15 14 14 14 14 14 14 14 14 14 14 14 14 14 14 14 14 14 14 14 14 14 14 14 14 14 14 14 14
17 17 17 16 16 16 16 16 15 15 15 15 15 15 14 14 14 14 14 14 14 14 14 14 14 14 14 14 14 14 14 14 14 14 14 14 14 14 14 14 14 14 14
17 17 17 16 16 16 16 15 15 15 15 15 15 15 14 14 14 14 14 14 14 14 14 14 14 14 14 14 14 14 13 13 13 13 13 13 13 13 13 13 13 13 13
17 17 17 16 16 16 16 16 15 15 15 15 15 15 14 14 14 14 14 14 14 14 14 14 14 13 13 13 13 13 13 13 13 13 13 13 13 13 13 13 13 13 13
17 17 17 16 16 16 16 16 15 15 15 15 15 15 14 14 14 14 14 14 14 13 13 13 13 13 13 13 13 13 13 13 13 13 13 13 13 13 13 13 13 13 13
17 17 17 16 16 16 16 16 15 15 15 15 15 15 14 14 14 14 14 14 13 13 13 13 13 13 13 13 13 13 13 13 13 13 13 13 13 13 13 13 13 13 13
17 17 17 16 16 16 16 15 15 15 15 15 15 14 14 14 14 14 14 13 13 13 13 13 13 13 13 13 13 13 12 12 12 12 12 12 13 13 13 12 12 13 12
17 17 17 16 16 16 16 15 15 15 15 15 15 14 14 14 14 14 13 13 13 13 13 13 13 12 12 12 12 12 12 12 12 12 12 12 12 12 12 12 12 12 12
17 17 16 16 16 16 16 15 15 15 15 15 15 14 14 14 14 14 13 13 13 13 13 13 13 12 12 12 12 12 12 12 12 12 12 12 12 12 12 12 12 12 12
Wind_Speed
1 2 2 4 6 7 8 9 9 10 10 11 11 12 11 11 11 11 11 11 11 11 11 11 11 10 10 10 10 10 10 10 10 10 9 9 9 8 7 7 6 6 6
1 1 3 5 6 7 8 9 10 10 10 11 11 11 11 11 11 11 11 11 11 11 11 10 11 10 10 10 10 10 10 10 10 10 9 9 9 8 8 7 7 6 6
2 2 4 5 7 7 8 9 10 10 10 11 11 11 11 11 11 11 11 11 11 11 10 10 10 10 10 10 9 9 9 9 10 10 9 7 8 8 7 7 7 7 7
3 3 4 6 7 7 8 9 9 10 11 11 11 11 11 11 11 11 11 11 10 10 10 10 9 10 9 9 10 10 10 10 10 9 8 7 6 7 7 7 7 7 6
4 4 4 7 7 8 8 9 9 10 10 10 11 11 11 11 11 11 11 11 10 10 10 10 10 10 9 10 10 10 10 10 10 10 9 8 6 7 8 8 7 7 6
4 4 4 7 7 8 8 9 9 9 10 10 10 10 10 11 11 11 11 11 11 11 11 10 10 10 10 10 10 10 11 11 10 9 8 8 7 8 9 8 8 7 7
3 4 4 6 7 8 8 9 9 9 9 9 9 10 10 10 11 11 11 11 12 12 12 11 10 11 11 11 11 10 10 10 10 8 8 7 8 9 9 9 8 8 7
4 4 4 6 7 7 8 9 9 9 9 9 9 9 9 10 10 10 11 11 11 11 12 11 11 11 10 10 10 10 9 9 8 8 7 7 9 9 9 8 8 8 8
4 4 4 5 6 7 8 8 8 8 8 8 8 9 9 9 9 10 10 11 11 11 11 11 11 11 10 10 10 10 10 10 8 6 6 6 8 8 9 8 9 9 9
4 3 4 5 6 7 7 8 8 8 7 7 7 8 8 8 8 9 9 9 10 10 11 11 11 11 10 10 10 9 10 9 8 7 6 6 7 8 8 8 9 9 9
3 2 3 4 5 6 6 7 7 7 7 8 7 7 8 7 7 7 8 9 9 10 10 11 11 11 11 10 9 9 9 7 6 6 5 6 7 8 9 9 9 9 9
2 1 2 3 4 5 5 6 7 7 8 8 7 7 7 7 7 7 8 8 9 9 10 11 11 11 10 9 9 9 8 7 6 5 5 6 7 8 9 9 9 9 9
2 2 2 2 3 4 4 5 5 6 6 7 7 7 7 7 7 7 7 7 7 8 8 9 9 8 8 7 7 7 7 6 6 6 6 8 8 8 8 9 9 9 9
3 2 2 3 3 3 4 3 4 4 4 4 5 6 5 4 5 5 5 6 6 6 6 6 6 7 7 7 7 6 6 6 6 6 7 8 8 8 8 8 8 8 8
4 3 2 3 3 3 3 2 3 3 3 3 4 5 5 3 3 3 4 5 5 6 5 5 5 5 6 6 7 6 6 6 6 7 6 8 9 9 9 8 8 8 8
4 3 3 3 3 4 3 2 2 2 3 3 3 3 4 4 3 3 3 3 4 5 5 4 4 4 4 5 6 6 5 5 6 7 7 8 9 9 10 9 8 8 8
4 3 3 4 3 3 3 2 2 2 3 2 2 3 4 4 3 3 3 3 3 4 5 5 5 5 4 5 5 5 5 5 6 6 7 7 7 8 9 9 9 10 10
4 4 3 4 4 3 3 3 2 2 2 2 2 2 3 3 3 3 3 2 3 4 4 3 3 4 4 4 3 3 4 4 5 5 6 6 7 7 8 9 9 10 11
5 5 4 4 4 4 3 3 3 3 2 2 2 2 2 3 3 3 2 2 3 3 3 3 3 3 3 3 3 3 4 4 4 4 5 6 6 7 7 8 9 9 9
4 4 4 4 4 4 3 2 2 2 2 2 1 1 2 2 2 3 2 2 3 3 2 3 3 3 2 2 3 4 4 3 3 4 4 5 6 6 6 6 7 7 8
4 4 5 4 4 4 2 2 2 1 0 0 0 1 1 2 2 3 2 2 2 2 2 2 2 3 2 2 2 3 3 3 3 3 3 3 4 5 6 6 6 6 5
5 5 5 5 5 4 3 2 2 1 1 1 0 1 1 1 2 2 3 2 2 2 2 2 2 2 1 2 2 2 3 4 3 3 3 3 3 4 4 5 5 5 5
5 6 6 5 5 4 4 3 2 2 2 1 1 0 1 1 2 2 2 2 2 2 2 1 1 2 1 2 1 2 2 2 3 3 3 3 3 3 3 3 4 3 3
7 6 6 6 5 4 5 4 4 3 2 2 1 1 1 0 1 2 2 2 2 1 1 1 1 1 2 0 1 1 1 2 1 2 3 3 3 2 3 2 3 3 3
6 6 6 5 5 5 5 5 4 2 1 1 0 0 1 1 0 1 2 2 2 1 1 1 1 1 1 2 1 1 1 1 1 2 2 4 3 2 2 2 2 2 3
4 4 4 5 4 5 5 5 5 4 3 2 1 1 1 1 1 1 1 2 2 1 1 1 1 2 1 1 2 2 2 2 2 2 2 2 3 3 3 2 2 2 2
Wind_Direction
298 316 28 74 81 80 82 83 83 82 82 85 89 88 86 83 81 81 80 78 78 77 80 87 86 87 88 86 87 89 87 84 82 81 77 85 91 90 91 89 85 82 85
159 354 76 83 88 85 84 84 85 82 81 86 91 90 87 84 81 78 79 78 78 77 79 86 88 87 87 85 85 86 85 83 81 82 77 77 82 84 86 87 90 90 92
107 82 95 93 92 89 87 87 88 85 85 87 90 89 86 83 80 77 76 78 78 77 78 82 87 88 86 84 84 86 85 82 78 77 71 63 70 79 82 83 87 87 83
110 88 98 99 94 91 91 91 89 88 87 88 88 87 84 81 79 76 74 76 76 76 77 80 85 88 88 85 83 85 84 81 78 74 63 55 58 70 74 76 81 79 75
96 84 94 103 99 95 94 91 90 89 88 88 88 87 84 80 78 76 73 74 74 76 77 79 83 85 87 85 83 85 82 82 78 70 61 55 53 65 70 69 71 71 66
93 87 91 101 98 95 94 91 91 90 89 89 87 87 84 79 76 73 71 71 71 72 75 79 81 84 85 84 84 85 84 82 77 68 60 55 55 64 67 64 62 61 60
101 84 87 97 94 91 92 93 91 89 88 88 87 85 82 79 75 72 70 69 68 68 71 75 79 83 85 84 84 85 86 83 74 67 59 56 61 63 63 62 61 56 53
105 84 83 97 92 92 93 94 92 89 87 86 84 83 82 78 75 70 68 67 65 64 67 71 74 80 80 82 84 82 82 80 73 66 60 58 63 62 61 60 59 54 49
90 80 63 76 87 90 94 94 92 89 86 85 83 80 79 75 72 69 67 67 65 64 64 66 70 75 76 78 81 79 79 75 67 61 62 62 66 63 61 59 58 52 50
82 71 64 66 72 74 80 91 90 86 82 80 78 76 74 68 66 65 64 64 66 64 63 63 69 67 70 75 77 75 75 70 61 54 52 60 63 62 60 58 56 51 47
100 69 64 68 67 69 74 83 81 78 73 70 66 68 61 51 50 52 57 61 64 63 61 60 62 64 65 67 71 69 66 61 54 49 49 55 56 57 57 56 55 52 48
148 123 80 80 73 69 73 70 67 65 64 59 57 55 52 48 43 45 49 54 57 59 57 57 60 60 59 57 59 60 57 52 47 39 43 47 52 56 57 55 53 50 48
156 134 116 102 88 80 72 71 63 60 60 55 52 50 51 49 43 40 39 40 45 50 49 48 54 57 61 62 59 55 49 47 40 33 38 46 50 51 53 52 49 46 45
137 147 130 120 103 91 82 73 68 62 59 53 50 50 52 48 44 41 41 40 46 50 50 47 52 54 60 64 63 55 46 43 38 34 37 45 46 47 50 48 46 43 44
154 155 145 129 122 109 92 85 77 64 64 60 54 50 60 64 58 51 49 46 46 50 52 49 50 55 58 59 58 54 42 37 34 33 31 39 47 46 43 43 42 39 39
172 161 146 137 126 110 104 97 84 75 72 64 49 44 64 75 75 67 60 52 47 47 54 61 61 64 62 60 53 47 41 36 34 32 31 32 36 40 39 38 39 34 35
171 154 153 149 117 114 115 110 90 80 86 71 46 41 58 71 77 81 71 56 46 54 62 65 62 65 64 57 44 38 38 35 36 33 34 34 32 32 36 41 44 38 40
156 151 158 155 133 128 119 109 94 87 93 84 75 64 67 75 86 88 82 63 54 66 69 70 55 58 54 51 39 24 29 29 29 33 39 38 35 30 29 38 43 44 45
168 160 153 146 143 142 124 107 97 88 83 83 87 83 83 86 99 102 97 83 80 77 65 66 54 62 60 46 42 31 21 22 16 29 34 35 36 35 29 28 34 40 45
163 157 155 150 148 140 121 102 79 71 62 57 73 99 102 97 114 113 102 88 93 84 60 57 63 50 56 43 46 34 16 11 19 24 21 29 32 33 31 31 31 27 35
155 158 168 163 163 150 134 134 126 171 242 355 11 111 119 118 124 119 108 99 95 96 96 88 83 65 43 25 52 19 2 10 23 24 21 27 23 24 31 33 31 30 25
178 180 179 182 176 173 169 154 147 149 173 210 291 57 123 152 145 142 129 135 123 107 88 81 89 90 43 38 93 68 5 349 351 3 10 22 11 11 20 23 27 28 27
194 192 191 191 181 173 156 123 91 67 50 44 9 303 308 195 157 139 141 137 140 135 149 152 128 124 114 16 61 131 133 248 313 332 348 4 2 4 356 360 13 20 24
205 193 187 185 179 170 157 153 153 159 179 210 219 234 283 268 162 158 155 153 158 155 170 202 140 143 140 150 31 60 159 172 161 321 325 337 346 352 347 347 353 358 11
195 185 184 176 175 174 169 170 165 163 181 179 156 166 261 280 249 179 173 158 164 172 196 183 134 137 152 169 178 161 114 80 135 174 292 319 331 326 328 321 324 339 347
177 174 173 171 181 178 173 173 174 173 168 158 179 189 250 274 275 271 184 162 169 176 199 201 174 164 175 168 176 171 170 168 186 174 214 276 299 302 309 311 308 300 308
Height
1519 1519 1519 1519 1519 1519 1519 1519 1518 1518 1518 1518 1518 1518 1518 1518 1518 1518 1518 1518 1518 1518 1519 1519 1519 1519 1520 1520 1520 1520 1520 1521 1521 1520 1519 1519 1521 1522 1523 1523 1524 1524 1524
1520 1519 1520 1520 1520 1520 1520 1520 1520 1519 1519 1519 1519 1519 1519 1519 1519 1519 1519 1519 1519 1519 1520 1520 1520 1520 1521 1521 1521 1521 1521 1522 1522 1522 1522 1522 1523 1523 1524 1524 1524 1524 1525
1520 1520 1521 1521 1521 1521 1521 1521 1521 1521 1520 1520 1520 1520 1521 1521 1521 1521 1521 1521 1520 1521 1521 1521 1521 1522 1522 1522 1523 1523 1523 1523 1523 1523 1523 1523 1524 1524 1524 1525 1525 1525 1525
1521 1521 1522 1522 1522 1522 1522 1522 1522 1522 1522 1522 1522 1522 1522 1522 1522 1522 1522 1522 1522 1522 1522 1522 1522 1523 1523 1523 1524 1524 1524 1524 1524 1524 1524 1524 1524 1525 1525 1525 1525 1525 1526
1522 1523 1523 1523 1523 1523 1523 1524 1524 1524 1524 1524 1524 1524 1524 1524 1524 1524 1524 1523 1523 1523 1523 1523 1523 1524 1524 1525 1525 1525 1525 1525 1525 1525 1525 1525 1525 1526 1526 1526 1526 1526 1526
1523 1524 1524 1525 1525 1525 1525 1525 1525 1525 1525 1525 1525 1525 1526 1526 1525 1525 1525 1525 1525 1524 1524 1524 1524 1524 1525 1526 1526 1526 1526 1526 1526 1526 1526 1526 1526 1526 1526 1526 1526 1526 1526
1525 1525 1526 1526 1526 1526 1527 1527 1527 1527 1527 1527 1527 1527 1527 1527 1527 1527 1527 1527 1526 1526 1525 1525 1525 1525 1526 1527 1527 1527 1527 1527 1527 1527 1527 1527 1527 1527 1527 1527 1527 1526 1526
1526 1527 1527 1527 1528 1528 1528 1528 1528 1528 1528 1528 1528 1528 1528 1528 1528 1528 1528 1528 1528 1527 1527 1526 1526 1527 1527 1528 1528 1528 1529 1528 1528 1528 1528 1528 1528 1528 1527 1527 1527 1526 1526
1528 1528 1529 1529 1529 1530 1530 1530 1530 1530 1530 1530 1530 1530 1530 1530 1530 1530 1530 1529 1529 1529 1529 1528 1528 1528 1529 1529 1529 1529 1529 1529 1529 1529 1529 1529 1529 1528 1528 1527 1527 1526 1526
1529 1530 1530 1530 1531 1531 1531 1531 1531 1531 1531 1531 1531 1531 1531 1531 1531 1531 1531 1531 1531 1531 1530 1530 1530 1530 1530 1531 1531 1531 1530 1530 1530 1530 1530 1530 1530 1529 1528 1528 1527 1527 1526
1530 1531 1531 1532 1532 1533 1533 1533 1533 1533 1533 1533 1533 1533 1533 1533 1533 1533 1533 1532 1532 1532 1532 1532 1532 1532 1532 1532 1532 1532 1532 1532 1531 1531 1531 1531 1530 1530 1529 1528 1528 1527 1526
1531 1532 1533 1533 1533 1534 1534 1534 1534 1534 1534 1534 1534 1534 1534 1534 1534 1534 1534 1534 1534 1534 1534 1534 1534 1533 1533 1533 1533 1533 1533 1533 1532 1532 1532 1532 1531 1530 1530 1529 1528 1527 1527
1532 1533 1533 1534 1534 1535 1535 1535 1535 1535 1535 1535 1535 1535 1535 1536 1536 1536 1535 1535 1535 1535 1535 1535 1535 1535 1535 1534 1534 1534 1534 1534 1533 1533 1533 1532 1531 1531 1530 1529 1528 1527 1527
1532 1533 1534 1535 1535 1536 1536 1536 1536 1536 1536 1536 1536 1536 1536 1537 1537 1537 1537 1537 1536 1536 1536 1536 1536 1536 1535 1535 1535 1535 1535 1534 1534 1533 1533 1532 1532 1531 1530 1529 1528 1527 1526
1533 1534 1534 1535 1536 1536 1537 1537 1537 1537 1537 1537 1537 1537 1537 1538 1537 1537 1538 1538 1538 1537 1537 1537 1537 1537 1536 1536 1536 1535 1535 1535 1534 1534 1533 1533 1532 1531 1530 1529 1528 1526 1524
1533 1534 1535 1535 1536 1537 1537 1537 1538 1538 1538 1538 1538 1538 1538 1538 1538 1538 1538 1538 1538 1538 1538 1538 1537 1537 1537 1536 1536 1536 1535 1535 1535 1534 1534 1533 1532 1531 1530 1529 1527 1525 1521
1533 1534 1535 1536 1536 1537 1537 1538 1538 1538 1538 1538 1538 1538 1538 1539 1539 1539 1539 1539 1539 1539 1539 1538 1538 1538 1537 1537 1537 1536 1536 1536 1535 1535 1534 1533 1533 1532 1531 1529 1527 1525 1521
1533 1534 1535 1536 1536 1537 1537 1537 1538 1538 1538 1539 1539 1539 1539 1539 1539 1539 1539 1539 1540 1539 1539 1539 1538 1538 1538 1538 1537 1537 1536 1536 1535 1535 1534 1534 1533 1532 1531 1530 1529 1527 1524
1533 1534 1535 1535 1536 1537 1537 1538 1538 1538 1539 1539 1539 1539 1539 1539 1540 1540 1540 1540 1540 1540 1539 1539 1539 1539 1538 1538 1537 1537 1537 1536 1536 1535 1534 1534 1534 1533 1532 1531 1530 1529 1527
1532 1533 1534 1535 1536 1537 1537 1537 1538 1538 1538 1539 1539 1539 1539 1539 1539 1540 1540 1540 1540 1540 1539 1539 1539 1539 1539 1538 1538 1537 1537 1536 1536 1535 1535 1534 1534 1533 1533 1532 1531 1530 1529
1531 1532 1533 1534 1535 1536 1536 1536 1537 1537 1538 1538 1538 1538 1539 1539 1539 1539 1539 1539 1540 1539 1539 1539 1539 1539 1538 1538 1538 1537 1537 1537 1536 1535 1535 1534 1534 1533 1533 1532 1532 1531 1530
1529 1531 1532 1533 1533 1534 1535 1536 1536 1537 1537 1538 1538 1538 1538 1538 1538 1539 1539 1539 1539 1539 1539 1539 1539 1538 1538 1538 1538 1537 1537 1538 1536 1536 1535 1534 1534 1533 1533 1532 1532 1531 1531
1527 1529 1530 1531 1532 1533 1534 1535 1536 1536 1537 1537 1537 1537 1537 1538 1538 1538 1538 1538 1538 1538 1538 1538 1538 1538 1538 1538 1538 1538 1537 1536 1536 1536 1535 1534 1534 1533 1533 1532 1532 1531 1531
1525 1527 1528 1529 1531 1532 1533 1534 1534 1535 1535 1535 1536 1536 1537 1537 1537 1537 1537 1537 1537 1537 1537 1538 1538 1538 1537 1537 1537 1537 1537 1537 1536 1535 1535 1534 1533 1533 1532 1532 1531 1531 1530
1523 1525 1526 1527 1529 1530 1531 1532 1533 1534 1534 1535 1535 1535 1536 1536 1536 1536 1535 1535 1536 1536 1536 1536 1536 1536 1536 1536 1536 1536 1536 1536 1535 1535 1534 1533 1533 1532 1531 1531 1531 1530 1530
1521 1523 1524 1525 1527 1528 1529 1530 1531 1532 1533 1534 1534 1534 1534 1534 1534 1534 1534 1534 1534 1534 1534 1535 1535 1535 1535 1535 1535 1534 1534 1534 1534 1533 1533 1532 1531 1531 1530 1530 1530 1529 1529